RYR7 LGAV-LIBD

Flight info

Callsign RYR7
Flight time 1h 17m
Altitude 36000
Route KOR UL53 OLGAT DCT NUCRE DCT XAPAT DCT KAPPO L612 DOLON
Aircraft B738/M-SDE2E3FGHIRWXY/LB1

Departure

Time 2026-04-21 12:39
Airport Athens Eleftherios Venizelos International Airport (LGAV)

Arrival

Time 2026-04-21 13:56
Airport Bari Karol Wojtyła International Airport (LIBD)
Time Latitude Longitude Altitude Speed Heading
2026-04-21 12:11 37.93074 23.94229 300 ft 0 kts 37°
2026-04-21 12:28 37.93070 23.94225 300 ft 4 kts 37°
2026-04-21 12:28 37.93051 23.94207 320 ft 2 kts 37°
2026-04-21 12:29 37.93032 23.94188 301 ft 4 kts 41°
2026-04-21 12:29 37.93013 23.94164 302 ft 4 kts 65°
2026-04-21 12:29 37.93012 23.94139 301 ft 3 kts 127°
2026-04-21 12:29 37.93025 23.94118 305 ft 0 kts 127°
2026-04-21 12:32 37.93021 23.94124 303 ft 2 kts 127°
2026-04-21 12:32 37.93000 23.94158 302 ft 7 kts 130°
2026-04-21 12:32 37.92966 23.94215 301 ft 10 kts 128°
2026-04-21 12:32 37.92917 23.94298 300 ft 14 kts 127°
2026-04-21 12:33 37.92852 23.94407 303 ft 17 kts 126°
2026-04-21 12:33 37.92864 23.94533 301 ft 17 kts 37°
2026-04-21 12:33 37.92953 23.94621 300 ft 16 kts 37°
2026-04-21 12:33 37.93041 23.94705 299 ft 15 kts 37°
2026-04-21 12:34 37.93127 23.94785 302 ft 15 kts 37°
2026-04-21 12:34 37.93212 23.94866 298 ft 16 kts 38°
2026-04-21 12:34 37.93304 23.94952 299 ft 17 kts 35°
2026-04-21 12:34 37.93406 23.95051 300 ft 19 kts 37°
2026-04-21 12:35 37.93520 23.95157 298 ft 22 kts 37°
2026-04-21 12:35 37.93645 23.95277 298 ft 24 kts 37°
2026-04-21 12:35 37.93793 23.95416 298 ft 28 kts 37°
2026-04-21 12:35 37.93961 23.95577 299 ft 32 kts 36°
2026-04-21 12:36 37.94149 23.95754 296 ft 35 kts 36°
2026-04-21 12:36 37.94353 23.95949 298 ft 38 kts 37°
2026-04-21 12:36 37.94573 23.96156 300 ft 40 kts 37°
2026-04-21 12:36 37.94801 23.96377 301 ft 42 kts 37°
2026-04-21 12:37 37.95035 23.96594 303 ft 41 kts 36°
2026-04-21 12:37 37.95247 23.96796 304 ft 16 kts 36°
2026-04-21 12:37 37.95292 23.96906 304 ft 15 kts 115°
2026-04-21 12:37 37.95232 23.97011 309 ft 14 kts 126°
2026-04-21 12:38 37.95152 23.96986 309 ft 14 kts 217°
2026-04-21 12:38 37.95068 23.96905 308 ft 27 kts 217°
2026-04-21 12:38 37.94711 23.96566 298 ft 98 kts 217°
2026-04-21 12:38 37.94017 23.95898 289 ft 152 kts 218°
2026-04-21 12:39 37.93137 23.95049 866 ft 155 kts 215°
2026-04-21 12:39 37.92279 23.94274 1697 ft 151 kts 220°
2026-04-21 12:39 37.91446 23.93374 2227 ft 168 kts 207°
2026-04-21 12:39 37.90279 23.92711 2487 ft 200 kts 208°
2026-04-21 12:40 37.88996 23.91838 2713 ft 221 kts 208°
2026-04-21 12:40 37.87589 23.90889 3134 ft 230 kts 209°
2026-04-21 12:40 37.86170 23.89941 3708 ft 234 kts 208°
2026-04-21 12:40 37.84708 23.88991 4275 ft 243 kts 210°
2026-04-21 12:41 37.83189 23.87976 5045 ft 245 kts 211°
2026-04-21 12:41 37.81682 23.86970 5835 ft 250 kts 211°
2026-04-21 12:41 37.80124 23.85934 6552 ft 256 kts 211°
2026-04-21 12:41 37.78555 23.84853 7300 ft 259 kts 218°
2026-04-21 12:42 37.77441 23.83091 7751 ft 264 kts 254°
2026-04-21 12:42 37.77351 23.80806 8461 ft 264 kts 281°
2026-04-21 12:42 37.77829 23.78544 9241 ft 267 kts 288°
2026-04-21 12:42 37.78427 23.76294 10010 ft 270 kts 289°
2026-04-21 12:43 37.79054 23.74025 10425 ft 285 kts 289°
2026-04-21 12:43 37.79737 23.71557 10589 ft 308 kts 289°
2026-04-21 12:43 37.80464 23.68898 10762 ft 330 kts 289°
2026-04-21 12:43 37.81222 23.66094 10918 ft 349 kts 289°
2026-04-21 12:44 37.82015 23.63131 11292 ft 360 kts 289°
2026-04-21 12:44 37.82818 23.60106 11913 ft 363 kts 289°
2026-04-21 12:44 37.83614 23.57090 12616 ft 365 kts 289°
2026-04-21 12:44 37.84422 23.54019 13297 ft 368 kts 289°
2026-04-21 12:45 37.85233 23.50927 13952 ft 371 kts 289°
2026-04-21 12:45 37.86039 23.47848 14578 ft 373 kts 288°
2026-04-21 12:45 37.86862 23.44701 15278 ft 375 kts 288°
2026-04-21 12:45 37.87680 23.41564 15944 ft 376 kts 288°
2026-04-21 12:46 37.88504 23.38405 16631 ft 378 kts 288°
2026-04-21 12:46 37.89329 23.35235 17248 ft 381 kts 288°
2026-04-21 12:46 37.90152 23.32068 17853 ft 384 kts 288°
2026-04-21 12:46 37.91073 23.28872 18413 ft 387 kts 294°
2026-04-21 12:47 37.92431 23.25898 18914 ft 392 kts 304°
2026-04-21 12:47 37.94056 23.23149 19422 ft 395 kts 305°
2026-04-21 12:47 37.95712 23.20348 19916 ft 398 kts 305°
2026-04-21 12:47 37.97377 23.17510 20388 ft 401 kts 304°
2026-04-21 12:48 37.99042 23.14656 20879 ft 404 kts 305°
2026-04-21 12:48 38.00708 23.11790 21370 ft 406 kts 304°
2026-04-21 12:48 38.02390 23.08888 21890 ft 408 kts 304°
2026-04-21 12:48 38.04057 23.06005 22380 ft 409 kts 304°
2026-04-21 12:49 38.05750 23.03076 22794 ft 413 kts 304°
2026-04-21 12:49 38.07456 23.00118 23196 ft 416 kts 304°
2026-04-21 12:49 38.09178 22.97130 23597 ft 419 kts 304°
2026-04-21 12:49 38.10880 22.94174 23970 ft 420 kts 304°
2026-04-21 12:50 38.12612 22.91163 24330 ft 422 kts 304°
2026-04-21 12:50 38.14358 22.88125 24699 ft 424 kts 304°
2026-04-21 12:50 38.16104 22.85086 25043 ft 426 kts 304°
2026-04-21 12:50 38.17858 22.82028 25383 ft 428 kts 304°
2026-04-21 12:51 38.19596 22.78997 25712 ft 430 kts 304°
2026-04-21 12:51 38.21364 22.75910 26115 ft 430 kts 304°
2026-04-21 12:51 38.23134 22.72816 26464 ft 431 kts 304°
2026-04-21 12:51 38.24886 22.69752 26746 ft 434 kts 304°
2026-04-21 12:52 38.26671 22.66625 27037 ft 436 kts 304°
2026-04-21 12:52 38.28451 22.63506 27430 ft 435 kts 304°
2026-04-21 12:52 38.30224 22.60396 27922 ft 432 kts 304°
2026-04-21 12:52 38.31970 22.57332 28466 ft 428 kts 304°
2026-04-21 12:53 38.33722 22.54253 28896 ft 428 kts 304°
2026-04-21 12:53 38.35476 22.51165 29252 ft 429 kts 304°
2026-04-21 12:53 38.37203 22.48125 29664 ft 428 kts 304°
2026-04-21 12:53 38.38945 22.45053 30130 ft 425 kts 304°
2026-04-21 12:54 38.40674 22.42004 30551 ft 423 kts 304°
2026-04-21 12:54 38.42393 22.38968 30924 ft 422 kts 304°
2026-04-21 12:54 38.44117 22.35921 31264 ft 421 kts 304°
2026-04-21 12:54 38.45819 22.32908 31552 ft 420 kts 304°
2026-04-21 12:55 38.47532 22.29876 31829 ft 420 kts 304°
2026-04-21 12:55 38.49223 22.26877 32166 ft 419 kts 303°
2026-04-21 12:55 38.50922 22.23864 32615 ft 416 kts 303°
2026-04-21 12:55 38.52615 22.20857 32966 ft 416 kts 303°
2026-04-21 12:56 38.54314 22.17837 33290 ft 416 kts 303°
2026-04-21 12:56 38.56002 22.14834 33638 ft 415 kts 303°
2026-04-21 12:56 38.57662 22.11877 34011 ft 413 kts 303°
2026-04-21 12:56 38.59342 22.08883 34358 ft 411 kts 303°
2026-04-21 12:57 38.61015 22.05898 34605 ft 411 kts 303°
2026-04-21 12:57 38.62662 22.02957 34807 ft 412 kts 303°
2026-04-21 12:57 38.64342 21.99954 35042 ft 413 kts 303°
2026-04-21 12:57 38.66011 21.96967 35291 ft 413 kts 303°
2026-04-21 12:58 38.67685 21.93970 35538 ft 413 kts 303°
2026-04-21 12:58 38.69341 21.91000 35787 ft 413 kts 303°
2026-04-21 12:58 38.71017 21.87995 35994 ft 414 kts 303°
2026-04-21 12:59 38.74393 21.81929 35966 ft 417 kts 303°
2026-04-21 12:59 38.77729 21.75925 35970 ft 415 kts 303°
2026-04-21 13:00 38.81071 21.69900 35966 ft 416 kts 303°
2026-04-21 13:00 38.84426 21.63840 35997 ft 416 kts 303°
2026-04-21 13:01 38.87765 21.57796 35992 ft 416 kts 303°
2026-04-21 13:01 38.91118 21.51716 35981 ft 415 kts 303°
2026-04-21 13:02 38.94430 21.45700 35989 ft 413 kts 303°
2026-04-21 13:02 38.99464 21.36531 35989 ft 412 kts 303°
2026-04-21 13:03 39.02743 21.30545 35982 ft 411 kts 303°
2026-04-21 13:03 39.06043 21.24512 35986 ft 411 kts 303°
2026-04-21 13:04 39.09342 21.18467 35993 ft 412 kts 303°
2026-04-21 13:04 39.12622 21.12447 35987 ft 413 kts 303°
2026-04-21 13:05 39.15372 21.07390 35989 ft 413 kts 303°
2026-04-21 13:05 39.18669 21.01316 35995 ft 414 kts 303°
2026-04-21 13:06 39.22512 20.94223 35995 ft 415 kts 303°
2026-04-21 13:06 39.25274 20.89115 35994 ft 415 kts 303°
2026-04-21 13:07 39.28552 20.83044 35993 ft 415 kts 303°
2026-04-21 13:07 39.31864 20.76896 35994 ft 415 kts 303°
2026-04-21 13:08 39.35131 20.70812 35988 ft 414 kts 303°
2026-04-21 13:08 39.38413 20.64703 35997 ft 414 kts 303°
2026-04-21 13:09 39.41689 20.58590 35970 ft 413 kts 303°
2026-04-21 13:09 39.44960 20.52474 35991 ft 412 kts 303°
2026-04-21 13:10 39.48218 20.46369 35987 ft 413 kts 303°
2026-04-21 13:10 39.51489 20.40226 35986 ft 413 kts 303°
2026-04-21 13:11 39.54733 20.34123 35989 ft 413 kts 302°
2026-04-21 13:11 39.58004 20.27960 35987 ft 413 kts 302°
2026-04-21 13:12 39.61241 20.21846 35988 ft 413 kts 302°
2026-04-21 13:12 39.64495 20.15690 35989 ft 413 kts 302°
2026-04-21 13:13 39.67742 20.09534 35992 ft 413 kts 302°
2026-04-21 13:13 39.70971 20.03401 35981 ft 413 kts 302°
2026-04-21 13:14 39.74214 19.97229 35990 ft 412 kts 302°
2026-04-21 13:14 39.77422 19.91112 35993 ft 412 kts 302°
2026-04-21 13:15 39.80665 19.84916 35986 ft 413 kts 302°
2026-04-21 13:15 39.83871 19.78780 35994 ft 412 kts 302°
2026-04-21 13:16 39.87100 19.72586 35984 ft 412 kts 302°
2026-04-21 13:16 39.90302 19.66434 35969 ft 411 kts 302°
2026-04-21 13:17 39.93510 19.60256 35972 ft 411 kts 302°
2026-04-21 13:17 39.96688 19.54125 35973 ft 410 kts 302°
2026-04-21 13:18 39.99893 19.47929 35970 ft 410 kts 302°
2026-04-21 13:18 40.03070 19.41775 35969 ft 410 kts 302°
2026-04-21 13:19 40.06245 19.35615 35963 ft 410 kts 302°
2026-04-21 13:19 40.09426 19.29430 35965 ft 409 kts 302°
2026-04-21 13:20 40.12584 19.23275 35962 ft 409 kts 302°
2026-04-21 13:20 40.15763 19.17070 35978 ft 409 kts 302°
2026-04-21 13:21 40.18910 19.10912 35960 ft 409 kts 302°
2026-04-21 13:21 40.22083 19.04695 35961 ft 409 kts 302°
2026-04-21 13:22 40.25301 18.98562 35955 ft 410 kts 306°
2026-04-21 13:22 40.28865 18.92754 35957 ft 411 kts 307°
2026-04-21 13:23 40.32487 18.86934 35955 ft 411 kts 307°
2026-04-21 13:23 40.36065 18.81129 35946 ft 411 kts 306°
2026-04-21 13:24 40.39651 18.75272 35943 ft 411 kts 307°
2026-04-21 13:24 40.43218 18.69429 35941 ft 411 kts 307°
2026-04-21 13:25 40.46799 18.63552 35956 ft 411 kts 307°
2026-04-21 13:25 40.50357 18.57701 35938 ft 411 kts 306°
2026-04-21 13:26 40.53911 18.51847 35936 ft 411 kts 306°
2026-04-21 13:26 40.57486 18.45947 35938 ft 410 kts 306°
2026-04-21 13:27 40.59003 18.42834 35925 ft 408 kts 294°
2026-04-21 13:27 40.60035 18.39358 35942 ft 408 kts 287°
2026-04-21 13:27 40.60859 18.31963 35953 ft 410 kts 272°
2026-04-21 13:28 40.60863 18.24494 35946 ft 411 kts 272°
2026-04-21 13:28 40.60927 18.16947 35934 ft 412 kts 273°
2026-04-21 13:29 40.60967 18.13183 35545 ft 418 kts 273°
2026-04-21 13:29 40.61004 18.09365 35026 ft 415 kts 273°
2026-04-21 13:29 40.61085 18.05551 34339 ft 414 kts 278°
2026-04-21 13:29 40.61713 18.01906 33656 ft 412 kts 290°
2026-04-21 13:30 40.62846 17.98437 32938 ft 411 kts 297°
2026-04-21 13:30 40.64396 17.95268 32218 ft 412 kts 308°
2026-04-21 13:30 40.66291 17.92481 31519 ft 412 kts 310°
2026-04-21 13:30 40.68242 17.89692 30753 ft 414 kts 310°
2026-04-21 13:31 40.70193 17.86902 29982 ft 414 kts 310°
2026-04-21 13:31 40.72154 17.84074 29056 ft 415 kts 310°
2026-04-21 13:31 40.74075 17.81280 28190 ft 414 kts 310°
2026-04-21 13:31 40.76007 17.78455 27563 ft 409 kts 310°
2026-04-21 13:32 40.77883 17.75702 26925 ft 405 kts 310°
2026-04-21 13:32 40.79754 17.72951 26339 ft 400 kts 310°
2026-04-21 13:32 40.81608 17.70224 25769 ft 395 kts 310°
2026-04-21 13:32 40.83437 17.67532 25202 ft 391 kts 310°
2026-04-21 13:33 40.85244 17.64870 24629 ft 387 kts 310°
2026-04-21 13:33 40.86839 17.62094 24044 ft 382 kts 297°
2026-04-21 13:33 40.87751 17.58819 23515 ft 379 kts 284°
2026-04-21 13:33 40.88125 17.55361 22793 ft 379 kts 273°
2026-04-21 13:34 40.87874 17.51885 22237 ft 379 kts 263°
2026-04-21 13:34 40.87349 17.48525 21665 ft 375 kts 261°
2026-04-21 13:34 40.86884 17.45160 21102 ft 368 kts 270°
2026-04-21 13:34 40.87174 17.41830 20608 ft 360 kts 285°
2026-04-21 13:35 40.88035 17.38734 20001 ft 360 kts 296°
2026-04-21 13:35 40.89256 17.35826 19448 ft 359 kts 299°
2026-04-21 13:35 40.90517 17.32993 18925 ft 366 kts 300°
2026-04-21 13:35 40.91825 17.30071 18366 ft 371 kts 299°
2026-04-21 13:36 40.93131 17.27126 17735 ft 369 kts 299°
2026-04-21 13:36 40.94413 17.24204 17159 ft 364 kts 299°
2026-04-21 13:36 40.95673 17.21310 16604 ft 360 kts 298°
2026-04-21 13:36 40.96898 17.18482 16070 ft 356 kts 298°
2026-04-21 13:37 40.98130 17.15632 15512 ft 353 kts 298°
2026-04-21 13:37 40.99342 17.12825 14982 ft 350 kts 298°
2026-04-21 13:37 41.00526 17.10079 14646 ft 342 kts 298°
2026-04-21 13:37 41.01705 17.07344 14388 ft 332 kts 298°
2026-04-21 13:38 41.02819 17.04759 14133 ft 324 kts 298°
2026-04-21 13:38 41.03924 17.02191 13890 ft 316 kts 298°
2026-04-21 13:38 41.05004 16.99680 13645 ft 309 kts 298°
2026-04-21 13:38 41.06064 16.97213 13373 ft 303 kts 298°
2026-04-21 13:39 41.07015 16.94792 13077 ft 296 kts 288°
2026-04-21 13:39 41.07301 16.92125 12839 ft 290 kts 270°
2026-04-21 13:39 41.06994 16.89503 12577 ft 287 kts 255°
2026-04-21 13:39 41.06331 16.87052 12242 ft 284 kts 251°
2026-04-21 13:40 41.05619 16.84605 11927 ft 282 kts 251°
2026-04-21 13:40 41.04914 16.82187 11603 ft 280 kts 251°
2026-04-21 13:40 41.04232 16.79815 11305 ft 277 kts 251°
2026-04-21 13:40 41.03561 16.77462 11183 ft 268 kts 251°
2026-04-21 13:41 41.02910 16.75173 11062 ft 261 kts 252°
2026-04-21 13:41 41.02280 16.72955 10942 ft 253 kts 252°
2026-04-21 13:41 41.01672 16.70814 10861 ft 244 kts 252°
2026-04-21 13:41 41.01083 16.68745 10791 ft 239 kts 251°
2026-04-21 13:42 41.00496 16.66684 10773 ft 238 kts 251°
2026-04-21 13:42 40.99904 16.64603 10721 ft 242 kts 251°
2026-04-21 13:42 40.99310 16.62515 10666 ft 247 kts 251°
2026-04-21 13:42 40.98699 16.60373 10593 ft 247 kts 251°
2026-04-21 13:43 40.98099 16.58272 10523 ft 245 kts 251°
2026-04-21 13:43 40.97498 16.56171 10440 ft 239 kts 251°
2026-04-21 13:43 40.96925 16.54170 10349 ft 230 kts 251°
2026-04-21 13:43 40.96365 16.52218 10297 ft 221 kts 251°
2026-04-21 13:44 40.95834 16.50360 10236 ft 215 kts 251°
2026-04-21 13:44 40.95309 16.48522 10186 ft 213 kts 251°
2026-04-21 13:44 40.94783 16.46679 10136 ft 214 kts 251°
2026-04-21 13:44 40.94250 16.44815 10090 ft 218 kts 251°
2026-04-21 13:45 40.93705 16.42915 10025 ft 220 kts 251°
2026-04-21 13:45 40.93168 16.41041 9958 ft 220 kts 251°
2026-04-21 13:45 40.92627 16.39158 9894 ft 219 kts 251°
2026-04-21 13:45 40.92087 16.37280 9827 ft 218 kts 250°
2026-04-21 13:46 40.91547 16.35405 9761 ft 217 kts 250°
2026-04-21 13:46 40.91014 16.33560 9692 ft 217 kts 251°
2026-04-21 13:46 40.90476 16.31694 9633 ft 217 kts 251°
2026-04-21 13:46 40.89941 16.29826 9560 ft 217 kts 253°
2026-04-21 13:47 40.89836 16.27856 9400 ft 216 kts 280°
2026-04-21 13:47 40.90412 16.26049 8992 ft 221 kts 303°
2026-04-21 13:47 40.91593 16.24686 8540 ft 231 kts 329°
2026-04-21 13:47 40.93171 16.24187 8165 ft 240 kts 358°
2026-04-21 13:48 40.94793 16.24792 7816 ft 248 kts 28°
2026-04-21 13:48 40.96074 16.26307 7482 ft 251 kts 47°
2026-04-21 13:48 40.97200 16.28078 7138 ft 251 kts 47°
2026-04-21 13:48 40.98315 16.29834 6799 ft 250 kts 47°
2026-04-21 13:49 40.99435 16.31587 6466 ft 249 kts 47°
2026-04-21 13:49 41.00559 16.33337 6135 ft 247 kts 47°
2026-04-21 13:49 41.01662 16.35050 5920 ft 246 kts 48°
2026-04-21 13:49 41.02704 16.36830 5720 ft 244 kts 59°
2026-04-21 13:50 41.03429 16.38860 5624 ft 238 kts 68°
2026-04-21 13:50 41.04025 16.40937 5354 ft 244 kts 69°
2026-04-21 13:50 41.04594 16.43007 5068 ft 241 kts 69°
2026-04-21 13:50 41.05166 16.45082 4764 ft 236 kts 69°
2026-04-21 13:51 41.05723 16.47088 4430 ft 233 kts 69°
2026-04-21 13:51 41.06283 16.49091 4134 ft 229 kts 68°
2026-04-21 13:51 41.06835 16.51069 3841 ft 226 kts 68°
2026-04-21 13:51 41.07375 16.52998 3543 ft 223 kts 69°
2026-04-21 13:52 41.07914 16.54925 3237 ft 221 kts 69°
2026-04-21 13:52 41.08445 16.56822 2947 ft 217 kts 68°
2026-04-21 13:52 41.08953 16.58635 2623 ft 209 kts 69°
2026-04-21 13:52 41.09292 16.59845 2446 ft 204 kts 69°
2026-04-21 13:53 41.09933 16.62135 2080 ft 194 kts 69°
2026-04-21 13:53 41.10391 16.63765 1833 ft 185 kts 68°
2026-04-21 13:53 41.10824 16.65312 1568 ft 173 kts 68°
2026-04-21 13:53 41.11223 16.66734 1396 ft 155 kts 66°
2026-04-21 13:54 41.11590 16.68029 1173 ft 147 kts 67°
2026-04-21 13:54 41.11947 16.69304 942 ft 147 kts 69°
2026-04-21 13:54 41.12179 16.70135 851 ft 142 kts 69°
2026-04-21 13:54 41.12530 16.71369 660 ft 144 kts 69°
2026-04-21 13:55 41.12883 16.72622 459 ft 146 kts 68°
2026-04-21 13:55 41.13223 16.73866 263 ft 141 kts 64°
2026-04-21 13:55 41.13577 16.75059 136 ft 135 kts 71°
2026-04-21 13:55 41.13862 16.76076 134 ft 100 kts 70°
2026-04-21 13:56 41.14060 16.76793 123 ft 65 kts 69°
2026-04-21 13:56 41.14185 16.77231 118 ft 42 kts 69°
2026-04-21 13:56 41.14202 16.77398 113 ft 17 kts 122°
2026-04-21 13:56 41.14095 16.77401 119 ft 16 kts 192°
2026-04-21 13:57 41.14019 16.77311 120 ft 16 kts 249°
2026-04-21 13:57 41.13980 16.77179 119 ft 15 kts 249°
2026-04-21 13:57 41.13944 16.77053 123 ft 14 kts 249°
2026-04-21 13:57 41.13909 16.76932 120 ft 14 kts 246°
2026-04-21 13:58 41.13878 16.76817 123 ft 13 kts 251°
2026-04-21 13:58 41.13822 16.76763 128 ft 11 kts 166°
2026-04-21 13:58 41.13761 16.76740 133 ft 10 kts 247°
2026-04-21 13:58 41.13741 16.76653 135 ft 10 kts 248°
2026-04-21 13:59 41.13713 16.76573 135 ft 9 kts 235°
2026-04-21 13:59 41.13662 16.76521 135 ft 9 kts 216°
2026-04-21 13:59 41.13633 16.76448 135 ft 9 kts 250°
2026-04-21 13:59 41.13611 16.76372 135 ft 9 kts 249°
2026-04-21 14:00 41.13586 16.76316 135 ft 5 kts 201°
2026-04-21 14:00 41.13552 16.76332 135 ft 5 kts 160°
2026-04-21 14:00 41.13531 16.76342 135 ft 0 kts 160°
2026-04-21 14:01 41.13525 16.76345 135 ft 0 kts 159°